Regional Weather Roundup
Issued by NWS

Home | Current Version | Previous Version | Text Only | Print | Product List | Glossary On
Versions: 1 2 3 4 5 6 7 8 9 10 11 12 13 14 15 16 17 18 19 20 21 22 23 24 25 26 27 28 29 30 31 32 33 34 35 36 37 38 39 40 41 42 43 44 45 46 47 48 49 50
000
ASUS43 KTOP 271859
RWRKS

WEATHER ROUNDUP FOR KANSAS
NATIONAL WEATHER SERVICE GOODLAND KS
200 PM CDT THU AUG 27 2015

NOTE:  "FAIR" INDICATES FEW OR NO CLOUDS BELOW 12,000 FEET WITH NO
SIGNIFICANT WEATHER AND/OR OBSTRUCTIONS TO VISIBILITY.

KSZ001>006-013>018-027>032-041>047-272000-
NORTHWEST KANSAS

CITY           SKY/WX    TMP DP  RH WIND       PRES   REMARKS
GOODLAND       MOSUNNY   91  48  22 NW16G26   29.96F
HAYS           CLOUDY    99  59  26 S21G28    29.87F HX  98
HILL CITY      CLOUDY    95  56  26 SW10      29.86F
RUSSELL        CLOUDY    98  58  26 S23G31    29.88F HX  97
$$

KSZ061>065-074>080-084>089-272000-
SOUTHWEST KANSAS

CITY           SKY/WX    TMP DP  RH WIND       PRES   REMARKS
DODGE CITY     CLOUDY    91  57  31 S17G26    29.97F
ELKHART          N/A     92  60  34 SW15        N/A
GARDEN CITY    PTSUNNY   92  56  29 SW18G28   29.95F
GREAT BEND     PTSUNNY   93  63  36 S22G29    29.92F
LIBERAL        PTSUNNY   93  57  29 SW25      30.00F
PRATT          PTSUNNY   95  57  28 S22       29.98F
$$

KSZ066>073-081>083-090>101-272000-
SOUTHEAST KANSAS

CITY           SKY/WX    TMP DP  RH WIND       PRES   REMARKS
CHANUTE        TSTM      70  65  84 S8        30.07F
COFFEYVILLE    PTSUNNY   73  64  73 SE7       30.06F
HUTCHINSON     MOSUNNY   84  65  52 SE26G37   30.01S
NEWTON         MOSUNNY   86  61  42 S26G35    30.04F
WICHITA INTL   MOSUNNY   86  63  45 SE25G36   30.02F
WICHITA JABRA  MOSUNNY   85  63  47 S24G33    30.02F
WICHITA MCCONL MOSUNNY   85  58  39 SE26G38   30.02F
WINFIELD       MOSUNNY   85  61  44 S21G29    30.06F
$$

KSZ007>012-019>026-033>040-048>060-102>105-272000-
NORTHEAST KANSAS

CITY           SKY/WX    TMP DP  RH WIND       PRES   REMARKS
CONCORDIA      CLOUDY    86  68  54 S23G31    29.94F
EMPORIA        MOSUNNY   84  65  52 S16       30.03F
LAWRENCE       CLOUDY    78  66  66 E9        30.09R
MANHATTAN      CLOUDY    88  67  49 S16G25    29.99F
OLATHE IND     CLOUDY    71  67  87 E8        30.14R
OLATHE EXE     TSTM      68  66  93 E12       30.13R
SALINA         PTSUNNY   86  68  54 S24G31    29.96F
TOPEKA BILLARD CLOUDY    80  67  64 E14       30.06R
TOPEKA FORBES  CLOUDY    80  66  62 SE9       30.05S
$$


USA.gov is the U.S. government's official web portal to all federal, state and local government web resources and services.